• In Hungary
  • List of Countries
  • For 7 days
  • Water Temperature
  • Satellite Maps
  • Weather Map
  • News
  • Weather Widgets
  • user-avatar
    Login

    Hourly Weather Niefang

    Today, 18 February, Sunday

    Time Temperature Precipitation Wind Pressure Humidity
    00:00 +22°C° 0.2 mm 1 mps 703 mmHg 96%
    01:00 +22°C° 0.2 mm 1 mps 703 mmHg 97%
    02:00 +22°C° 0 mm 1 mps 703 mmHg 97%
    03:00 +22°C° 0 mm 1 mps 702 mmHg 97%
    04:00 +22°C° 0 mm 1 mps 702 mmHg 97%
    05:00 +22°C° 0 mm 1 mps 702 mmHg 97%
    06:00 +22°C° 0 mm 1 mps 703 mmHg 97%
    07:00 +20°C° 0 mm 0 mps 703 mmHg 97%
    08:00 +22°C° 0.1 mm 0 mps 703 mmHg 88%
    09:00 +26°C° 0.1 mm 1 mps 704 mmHg 79%
    10:00 +28°C° 0.1 mm 1 mps 705 mmHg 70%
    11:00 +29°C° 0.8 mm 1 mps 705 mmHg 68%
    12:00 +29°C° 0.8 mm 1 mps 704 mmHg 66%
    13:00 +30°C° 0.8 mm 1 mps 704 mmHg 64%
    14:00 +30°C° 0.8 mm 1 mps 703 mmHg 65%
    15:00 +29°C° 0.8 mm 1 mps 702 mmHg 66%
    16:00 +29°C° 0.8 mm 1 mps 702 mmHg 67%
    17:00 +28°C° 0.6 mm 1 mps 702 mmHg 74%
    18:00 +26°C° 0.6 mm 1 mps 702 mmHg 82%
    19:00 +22°C° 0.6 mm 0 mps 702 mmHg 89%
    20:00 +22°C° 0 mm 0 mps 702 mmHg 90%
    21:00 +22°C° 0 mm 0 mps 703 mmHg 91%
    22:00 +21°C° 0 mm 0 mps 703 mmHg 92%
    23:00 +21°C° 0 mm 0 mps 703 mmHg 93%

    Tomorrow, 19 February, Monday

    Time Temperature Precipitation Wind Pressure Humidity
    00:00 +23°C° 0 mm 1 mps 702 mmHg 94%
    01:00 +22°C° 0 mm 1 mps 702 mmHg 95%
    02:00 +22°C° 0 mm 1 mps 702 mmHg 95%
    03:00 +22°C° 0 mm 1 mps 702 mmHg 96%
    04:00 +22°C° 0 mm 1 mps 701 mmHg 97%
    05:00 +22°C° 0.7 mm 1 mps 702 mmHg 96%
    06:00 +22°C° 0.7 mm 1 mps 702 mmHg 96%
    07:00 +20°C° 0.7 mm 0 mps 703 mmHg 96%
    08:00 +21°C° 0.9 mm 0 mps 703 mmHg 93%
    09:00 +22°C° 0.9 mm 0 mps 704 mmHg 90%
    10:00 +23°C° 0.9 mm 0 mps 704 mmHg 87%
    11:00 +23°C° 0.2 mm 0 mps 704 mmHg 84%
    12:00 +26°C° 0.2 mm 1 mps 704 mmHg 80%
    13:00 +27°C° 0.2 mm 1 mps 703 mmHg 76%
    14:00 +27°C° 0.3 mm 1 mps 703 mmHg 71%
    15:00 +28°C° 0.3 mm 1 mps 702 mmHg 66%
    16:00 +29°C° 0.3 mm 1 mps 702 mmHg 61%
    17:00 +27°C° 0.2 mm 1 mps 702 mmHg 70%
    18:00 +26°C° 0.2 mm 1 mps 702 mmHg 79%
    19:00 +24°C° 0.2 mm 1 mps 702 mmHg 87%
    20:00 +24°C° 0.1 mm 1 mps 703 mmHg 89%
    21:00 +23°C° 0.1 mm 1 mps 703 mmHg 91%
    22:00 +23°C° 0.1 mm 1 mps 704 mmHg 93%
    23:00 +23°C° 0 mm 1 mps 703 mmHg 93%

    Day after tomorrow, 20 February, Tuesday

    Time Temperature Precipitation Wind Pressure Humidity
    00:00 +23°C° 0 mm 1 mps 703 mmHg 94%
    01:00 +23°C° 0 mm 1 mps 702 mmHg 94%
    02:00 +22°C° 0 mm 1 mps 702 mmHg 95%
    03:00 +20°C° 0 mm 0 mps 702 mmHg 96%
    04:00 +20°C° 0 mm 0 mps 701 mmHg 97%
    05:00 +20°C° 0 mm 0 mps 702 mmHg 97%
    06:00 +20°C° 0 mm 0 mps 702 mmHg 97%
    07:00 +20°C° 0 mm 0 mps 703 mmHg 96%
    08:00 +22°C° 0 mm 0 mps 703 mmHg 88%
    09:00 +23°C° 0 mm 0 mps 704 mmHg 80%
    10:00 +25°C° 0 mm 0 mps 704 mmHg 72%
    11:00 +28°C° 0.2 mm 1 mps 704 mmHg 68%
    12:00 +29°C° 0.2 mm 1 mps 703 mmHg 63%
    13:00 +30°C° 0.2 mm 1 mps 703 mmHg 59%
    14:00 +29°C° 0.8 mm 1 mps 702 mmHg 64%
    15:00 +29°C° 0.8 mm 1 mps 701 mmHg 69%
    16:00 +28°C° 0.8 mm 1 mps 701 mmHg 73%
    17:00 +27°C° 1 mm 1 mps 701 mmHg 79%
    18:00 +23°C° 1 mm 0 mps 701 mmHg 85%
    19:00 +22°C° 1 mm 0 mps 701 mmHg 91%
    20:00 +22°C° 0.2 mm 0 mps 702 mmHg 91%
    21:00 +21°C° 0.2 mm 0 mps 702 mmHg 92%
    22:00 +21°C° 0.2 mm 0 mps 703 mmHg 93%
    23:00 +21°C° 0 mm 0 mps 702 mmHg 93%

    21 February, Wednesday

    Time Temperature Precipitation Wind Pressure Humidity
    00:00 +23°C° 0 mm 1 mps 702 mmHg 94%
    01:00 +23°C° 0 mm 1 mps 702 mmHg 95%
    02:00 +22°C° 0.1 mm 1 mps 701 mmHg 95%
    03:00 +22°C° 0.1 mm 1 mps 701 mmHg 96%
    04:00 +22°C° 0.1 mm 1 mps 701 mmHg 97%
    05:00 +22°C° 0 mm 1 mps 701 mmHg 97%
    06:00 +20°C° 0 mm 0 mps 702 mmHg 97%
    07:00 +20°C° 0 mm 0 mps 702 mmHg 97%
    08:00 +22°C° 0.1 mm 0 mps 703 mmHg 93%
    09:00 +23°C° 0.1 mm 0 mps 703 mmHg 88%
    10:00 +24°C° 0.1 mm 0 mps 704 mmHg 84%
    11:00 +25°C° 0 mm 0 mps 704 mmHg 77%
    12:00 +28°C° 0 mm 1 mps 703 mmHg 71%
    13:00 +29°C° 0 mm 1 mps 703 mmHg 64%
    14:00 +29°C° 0.1 mm 1 mps 702 mmHg 65%
    15:00 +29°C° 0.1 mm 1 mps 701 mmHg 66%
    16:00 +29°C° 0.1 mm 2 mps 701 mmHg 67%
    17:00 +27°C° 0.3 mm 1 mps 701 mmHg 74%
    18:00 +26°C° 0.3 mm 1 mps 701 mmHg 82%
    19:00 +24°C° 0.3 mm 1 mps 701 mmHg 90%
    20:00 +24°C° 0.1 mm 1 mps 702 mmHg 92%
    21:00 +22°C° 0.1 mm 0 mps 702 mmHg 93%
    22:00 +22°C° 0.1 mm 0 mps 702 mmHg 95%
    23:00 +21°C° 0.1 mm 0 mps 702 mmHg 96%

    22 February, Thursday

    Time Temperature Precipitation Wind Pressure Humidity
    00:00 +21°C° 0.1 mm 0 mps 702 mmHg 97%
    01:00 +23°C° 0.1 mm 1 mps 701 mmHg 97%
    02:00 +23°C° 0 mm 1 mps 701 mmHg 98%
    03:00 +21°C° 0 mm 0 mps 701 mmHg 98%
    04:00 +20°C° 0 mm 0 mps 700 mmHg 98%
    05:00 +20°C° 0 mm 0 mps 701 mmHg 98%
    06:00 +21°C° 0 mm 0 mps 701 mmHg 97%
    07:00 +21°C° 0 mm 0 mps 702 mmHg 97%
    08:00 +23°C° 0 mm 0 mps 702 mmHg 87%
    09:00 +25°C° 0 mm 0 mps 703 mmHg 77%
    10:00 +28°C° 0 mm 0 mps 704 mmHg 68%
    11:00 +28°C° 0.5 mm 0 mps 703 mmHg 65%
    12:00 +31°C° 0.5 mm 1 mps 702 mmHg 62%
    13:00 +32°C° 0.5 mm 1 mps 702 mmHg 59%
    14:00 +30°C° 2 mm 1 mps 701 mmHg 66%
    15:00 +29°C° 2 mm 1 mps 701 mmHg 73%
    16:00 +28°C° 2 mm 1 mps 700 mmHg 80%
    17:00 +27°C° 0.6 mm 1 mps 700 mmHg 84%
    18:00 +26°C° 0.6 mm 1 mps 700 mmHg 89%
    19:00 +24°C° 0.6 mm 1 mps 701 mmHg 93%
    20:00 +24°C° 0.3 mm 1 mps 701 mmHg 93%
    21:00 +24°C° 0.3 mm 1 mps 701 mmHg 93%
    22:00 +22°C° 0.3 mm 0 mps 702 mmHg 94%
    23:00 +21°C° 0 mm 0 mps 701 mmHg 94%

    23 February, Friday

    Time Temperature Precipitation Wind Pressure Humidity
    00:00 +21°C° 0 mm 0 mps 701 mmHg 95%
    01:00 +21°C° 0 mm 0 mps 701 mmHg 95%
    02:00 +21°C° 0.1 mm 0 mps 700 mmHg 96%
    03:00 +20°C° 0.1 mm 0 mps 700 mmHg 96%
    04:00 +20°C° 0.1 mm 0 mps 700 mmHg 96%
    05:00 +20°C° 0 mm 0 mps 700 mmHg 96%
    06:00 +20°C° 0 mm 0 mps 701 mmHg 96%
    07:00 +20°C° 0 mm 0 mps 701 mmHg 96%
    08:00 +22°C° 0 mm 0 mps 702 mmHg 89%
    09:00 +24°C° 0 mm 0 mps 702 mmHg 81%
    10:00 +26°C° 0 mm 0 mps 703 mmHg 74%
    11:00 +29°C° 0.1 mm 1 mps 703 mmHg 67%
    12:00 +31°C° 0.1 mm 1 mps 702 mmHg 61%
    13:00 +32°C° 0.1 mm 1 mps 702 mmHg 54%
    14:00 +31°C° 1.5 mm 1 mps 701 mmHg 61%
    15:00 +30°C° 1.5 mm 1 mps 701 mmHg 69%
    16:00 +29°C° 1.5 mm 1 mps 700 mmHg 76%
    17:00 +27°C° 1.6 mm 1 mps 700 mmHg 82%
    18:00 +26°C° 1.6 mm 1 mps 701 mmHg 87%
    19:00 +24°C° 1.6 mm 1 mps 701 mmHg 93%
    20:00 +22°C° 1.1 mm 0 mps 701 mmHg 94%
    21:00 +22°C° 1.1 mm 0 mps 702 mmHg 94%
    22:00 +22°C° 1.1 mm 0 mps 702 mmHg 95%
    23:00 +21°C° 0 mm 0 mps 701 mmHg 95%
    Show more